FloripaSat 1
1 44885U 19093G   25200.80919033  .00003936  00000-0  33080-3 0  9991
2 44885  97.8185 288.5012 0012434  72.6300 287.6281 14.98823288302773
RS-44
1 44909U 19096E   25200.50431979  .00000028  00000-0  67303-4 0  9991
2 44909  82.5198 200.7521 0216964 201.9470 157.2231 12.79742112259798
UPMSat 2
1 46276U 20061E   25200.17193600  .00068582  00000-0  48287-3 0  9991
2 46276  97.2406 276.0274 0001902 146.8230 213.3154 15.73906928271682
SALSAT
1 46495U 20068K   25200.82611254  .00006302  00000-0  26924-3 0  9999
2 46495  97.8624 180.7313 0011995  31.4876 328.7075 15.23193076264655
CubeSX-Sirius-HSE
1 47951U 21022V   25157.62701764  .07883385  25648-5  89537-3 0  9993
2 47951  97.4004  72.1904 0010275 223.9924 136.0557 16.36879307233400
CubeSX-HSE
1 47952U 21022W   25157.69972699  .06655353  25454-5  93288-3 0  9992
2 47952  97.3980  72.5414 0010307 219.3637 140.6911 16.34906352233436
GRBAlpha
1 47959U 21022AD  25160.45426279  .07940347  25506-5  90589-3 0  9995
2 47959  97.3899  75.6235 0011032 227.2558 132.7812 16.36806138232695
TUBIN
1 48900U 21059X   25200.82541783  .00048324  00000-0  51986-3 0  9998
2 48900  97.6764  13.4227 0003824  94.2401 265.9294 15.63593670226325
LEDSAT
1 49069U 21073D   25200.69854657  .00069903  00000-0  68626-3 0  9998
2 49069  97.3865 284.0589 0007536 275.0849  84.9551 15.65803078217702
CUTE
1 49263U 21088D   25200.18709483  .00036740  00000-0  68782-3 0  9996
2 49263  97.4494 277.6264 0008856  99.3526 260.8726 15.48568204210555
TeikyoSat 4
1 49396U 21102B   25200.57078429  .00001714  00000-0  11586-3 0  9995
2 49396  97.4083 237.5538 0012440   4.4179 355.7156 15.07777554202579
Z-Sat
1 49399U 21102E   25200.85415615  .00003512  00000-0  19268-3 0  9994
2 49399  97.3780 241.1746 0016865 329.1517  30.8723 15.14682112203075
KOSEN 1
1 49402U 21102H   25200.88020383  .00005344  00000-0  24546-3 0  9996
2 49402  97.3686 244.9234 0014040 300.7012  59.2839 15.20719868203413
HO-113
1 50466U 21131B   25200.83028572  .00000396  00000-0  13737-3 0  9995
2 50466  98.5106 289.9873 0004548  31.9685 328.1779 14.40851360187242
Foresail-1
1 52766U 22057AL  25176.64799660  .13857605  27391-5  25307-3 0  9992
2 52766  97.5832 331.2310 0012137 233.7199 258.4922 16.46795272172486
SNUGLITE 2
1 52899U 22065F   25200.63014317  .00000823  00000-0  16880-3 0  9991
2 52899  98.1736 342.2255 0007341 358.1124   2.0049 14.63285647162348
UmKA 1 (RS40S)
1 57172U 23091G   25200.88216393  .00004371  00000-0  23250-3 0  9996
2 57172  97.5560 256.0580 0014178 188.6284 171.4706 15.15704275113581
CubeBel-2 (EU11S)
1 57175U 23091K   25200.86933375  .00006673  00000-0  31336-3 0  9994
2 57175  97.5559 257.4431 0011810 194.0782 166.0125 15.19904802113673
VERONIKA
1 58261U 23174F   25200.63450208  .00262926  00000-0  11275-2 0  9991
2 58261  97.4062 289.5911 0007468 235.8259 124.2303 15.84383386 94991
ENSO
1 58470U 23185J   25200.84851516  .00053600  00000-0  66680-3 0  9993
2 58470  97.3710 277.3699 0005027 278.8447  81.2240 15.59784303 91305
EIRSAT-1
1 58472U 23185L   25200.18388224  .00135906  00000-0  84937-3 0  9998
2 58472  97.3637 279.4016 0004909 254.9525 105.1197 15.76447883 91384
SONATE-2
1 59112U 24043Q   25200.61679787  .00012849  00000-0  35871-3 0  9992
2 59112  97.5171 332.6394 0009898 337.1991  22.8812 15.36816917 76482
MO-122
1 60209U 24125G   25200.81646337  .00014023  00000-0  38397-3 0  9991
2 60209  97.2763  52.0090 0017786 358.6868   1.4327 15.37276519 58132
GRBBeta
1 60237U 24128C   25200.45957719  .00002667  00000-0  20717-3 0  9992
2 60237  61.9921 300.4795 0054606  66.1128 294.5671 15.02909829 56191
Curium One
1 60242U 24128H   25200.69338958  .00004884  00000-0  34075-3 0  9997
2 60242  61.9819 297.3481 0054618  62.3996 298.2628 15.05588472 56275
ROBUSTA-3A
1 60243U 24128J   25200.50934863  .00004884  00000-0  34554-3 0  9997
2 60243  61.9890 298.9563 0053618  60.0500 300.5900 15.05110402 56238
CatSat
1 60246U 24125J   25200.50284256  .00009135  00000-0  29967-3 0  9997
2 60246  97.2568  50.4490 0040415 313.4123  46.3756 15.31028308 56092
HYPERVIEW-1G (RS66S)
1 61772U 24199AP  25200.86715672  .00017832  00000-0  49538-3 0  9992
2 61772  97.3489  69.6681 0014546  54.7052 305.5550 15.36830381 83141
AO-123
1 61781U 24199AY  25200.83937949  .00005667  00000-0  20435-3 0  9990
2 61781  97.3505  68.0756 0017181  59.0363 301.2562 15.28792309 83039
ZIMSAT 2
1 61783U 24199BA  25200.89968855  .00033364  00000-0  75105-3 0  9997
2 61783  97.3461  70.6493 0013828  52.2672 307.9827 15.43125832 86365
HADES-R (SO-124)
1 62690U 25009CK  25200.17031708  .00028191  00000-0  92954-3 0  9998
2 62690  97.4076 280.8830 0001206 303.7570  56.3556 15.31408305 28203
HYDRA-T
1 62692U 25009CM  25200.47510477  .00028108  00000-0  91724-3 0  9990
2 62692  97.4078 281.2379 0000980 282.9478  77.1654 15.31742992 28251
JINJUSat 1B
1 63210U 25052A   25200.26583533  .00008250  00000-0  37137-3 0  9999
2 63210  97.4370  93.8960 0004638 158.1316 202.0119 15.21331146 19287
NUSHSAT 1
1 63211U 25052B   25200.45112410  .00009338  00000-0  41613-3 0  9995
2 63211  97.4361  94.0908 0004487 162.0111 198.1285 15.21638586 19313
TEVEL2-4
1 63213U 25052D   25200.20979140  .00008394  00000-0  37810-3 0  9996
2 63213  97.4276  93.6672 0003122 171.2116 188.9175 15.21306331 19275
TEVEL2-5
1 63214U 25052E   25200.67136803  .00008943  00000-0  40276-3 0  9999
2 63214  97.4278  94.1203 0003174 169.9552 190.1748 15.21291133 19341
TEVEL2-6
1 63215U 25052F   25200.21412674  .00008312  00000-0  37515-3 0  9995
2 63215  97.4277  93.6636 0003111 171.7379 188.3909 15.21241360 19271
TEVEL2-1
1 63217U 25052H   25200.42833124  .00008189  00000-0  37205-3 0  9995
2 63217  97.4254  93.7953 0002795 187.6278 172.4915 15.21017936 19307
TEVEL2-2
1 63218U 25052J   25200.49438240  .00008769  00000-0  39811-3 0  9992
2 63218  97.4254  93.8612 0002831 188.3084 171.8105 15.21022803 19319
TEVEL2-3
1 63219U 25052K   25200.42887738  .00008094  00000-0  36781-3 0  9990
2 63219  97.4254  93.7956 0002789 188.2406 171.8784 15.21013125 19308
TEVEL2-8
1 63237U 25052AD  25200.26278912  .00008181  00000-0  38515-3 0  9994
2 63237  97.4317  93.5119 0006501 226.0261 134.0439 15.19777672 19267
TEVEL2-9
1 63238U 25052AE  25200.26679663  .00007833  00000-0  36966-3 0  9994
2 63238  97.4323  93.5094 0006634 226.2291 133.8395 15.19708726 19261
TEVEL2-7
1 63239U 25052AF  25200.26962333  .00007781  00000-0  36757-3 0  9994
2 63239  97.4318  93.5042 0006603 226.8919 133.1764 15.19676657 19268
HYDRA-W
1 63490U 25052BL  25200.26725086  .00019311  00000-0  77701-3 0  9991
2 63490  97.4265  94.0314 0009916 222.8401 137.2065 15.24889940 19309
HADES-ICM (SO-125)
1 63492U 25052BN  25200.42587073  .00017178  00000-0  70255-3 0  9999
2 63492  97.4268  94.1349 0010105 227.0196 133.0195 15.24364872 19325
